User: anonymous   Login
Location: Hancock Field Station
(44.9202°N, 120.4259°W)
Time: 21:26:57
(UTC-08:00)
Language:

Cosmos 1707 - Orbit

View from above orbital plane
View from above orbital plane
View from above satellite
View from above satellite

Ground track
Ground track

The orbit data is extracted from the following two-line orbital elements,

1 16326U 85113A   18023.86056491  .00000674  00000-0  35848-4 0  9998
2 16326  82.5118 351.5229 0008863 258.3418 101.6819 15.13588634750729
Epoch (UTC): 23 January 2018 20:39:12
Eccentricity: 0.0008863
inclination: 82.5118°
perigee height: 519 km
apogee height: 531 km
right ascension of ascending node: 351.5229°
argument of perigee: 258.3418°
revolutions per day: 15.13588634
mean anomaly at epoch: 101.6819°
orbit number at epoch: 75072

The dashed part of the orbit path shows where the satellite is in the earth's shadow,  

DLR